User: anonymous   Login
Location: Albany
(35.0000°S, 118.0000°E)
Time: 13:05:37
(UTC-04:00)
Language:

Transit 2A - Orbit

View from above orbital plane
View from above orbital plane
View from above satellite
View from above satellite

Ground track
Ground track

The orbit data is extracted from the following two-line orbital elements,

1 00045U 60007A   18115.87385252 -.00000012  00000-0  23882-4 0  9999
2 00045  66.6937 285.6860 0253972 167.6502 193.0986 14.33595697 10388
Epoch (UTC): 25 April 2018 20:58:20
Eccentricity: 0.0253972
inclination: 66.6937°
perigee height: 598 km
apogee height: 961 km
right ascension of ascending node: 285.6860°
argument of perigee: 167.6502°
revolutions per day: 14.33595697
mean anomaly at epoch: 193.0986°
orbit number at epoch: 1038

The dashed part of the orbit path shows where the satellite is in the earth's shadow,  

DLR